FW8104 Weather Reports


time (UTC)temp
F
wind
direction
speed
knots
gust
knots
rain 1hr
in
rain 24hr
in
rain mn
in
humidity
%
barometer
mb
20260505102212 61 24 3.5 3.5 0.00 0.61 0.61 99 1004.7
20260505101711 61 134 0.9 1.7 0.00 0.61 0.61 99 1004.7
20260505101206 61 25 1.7 2.6 0.00 0.61 0.61 99 1004.5
20260505100702 61 114 0.9 1.7 0.00 0.61 0.61 99 1004.7
20260505100159 61 61 3.5 3.5 0.00 0.61 0.61 99 1004.6
20260505095655 61 5 3.5 3.5 0.00 0.61 0.61 99 1004.7
20260505095153 61 351 1.7 2.6 0.00 0.61 0.61 98 1004.6
20260505094649 61 24 5.2 7.0 0.07 0.61 0.61 98 1004.9
20260505094145 60 147 1.7 2.6 0.24 0.61 0.61 98 1004.5
20260505093642 60 161 1.7 2.6 0.52 0.60 0.60 98 1004.2
20260505093139 61 145 8.7 8.7 0.40 0.58 0.58 98 1004.0
20260505092636 61 160 3.5 5.2 0.07 0.51 0.51 96 1003.9
20260505092135 61 164 6.1 7.8 0.14 0.51 0.51 96 1003.8
20260505091631 62 158 7.8 8.7 0.07 0.50 0.50 97 1003.7
20260505091129 62 169 3.5 6.1 0.00 0.49 0.49 97 1004.1
20260505090626 62 163 3.5 3.5 0.12 0.49 0.49 98 1003.6
20260505090124 61 173 6.1 7.0 0.28 0.49 0.49 98 1003.5
20260505085621 61 166 4.3 6.1 0.17 0.47 0.47 98 1004.0
20260505085120 61 193 5.2 7.8 0.19 0.44 0.44 98 1003.7
20260505084617 61 202 3.5 6.1 0.35 0.44 0.44 98 1003.6
20260505084115 61 151 3.5 6.1 0.38 0.42 0.42 98 1003.6
20260505083613 61 184 0.9 1.7 0.19 0.39 0.39 98 1004.4
20260505083109 61 214 1.7 2.6 0.00 0.36 0.36 98 1004.6
20260505082605 61 209 1.7 1.7 0.00 0.36 0.36 98 1004.5
20260505082102 61 183 2.6 3.5 0.24 0.36 0.36 98 1004.3
20260505081558 61 163 3.5 5.2 0.24 0.36 0.36 98 1004.1
20260505081055 61 169 9.6 11.3 0.05 0.32 0.32 97 1003.7
20260505080551 62 185 7.0 8.7 0.05 0.32 0.32 97 1003.4
20260505080049 61 205 7.0 7.8 0.00 0.31 0.31 98 1003.5
20260505075544 61 166 5.2 8.7 0.07 0.31 0.31 98 1003.3
20260505075041 61 216 5.2 7.0 0.07 0.31 0.31 98 1003.2
20260505074538 61 158 7.0 7.8 0.00 0.30 0.30 99 1003.1
20260505074036 61 191 8.7 9.6 0.00 0.30 0.30 99 1003.6
20260505073533 61 151 5.2 6.1 0.00 0.30 0.30 99 1003.7
20260505073032 61 134 13.0 15.6 0.00 0.30 0.30 99 1003.8
20260505072526 61 172 7.8 12.2 0.00 0.30 0.30 99 1004.1
20260505072023 62 140 12.2 14.8 0.00 0.30 0.30 99 1004.2
20260505071518 62 115 5.2 7.0 0.00 0.30 0.30 99 1004.6
20260505071017 62 189 7.0 7.8 0.05 0.30 0.30 99 1005.4
20260505070514 62 167 6.1 7.0 0.05 0.30 0.30 99 1005.0
20260505070010 62 200 3.5 3.5 0.07 0.29 0.29 99 1005.4
20260505065506 62 136 2.6 3.5 0.12 0.29 0.29 99 1006.1
20260505065002 62 168 7.8 8.7 0.12 0.28 0.28 98 1006.1
20260505064459 62 173 2.6 3.5 0.12 0.27 0.27 98 1006.7
20260505063958 62 200 0.9 0.9 0.12 0.26 0.26 98 1006.9
20260505063454 62 177 1.7 1.7 0.14 0.25 0.25 98 1006.7
20260505062950 62 188 1.7 1.7 0.24 0.24 0.24 97 1006.7
20260505062448 62 196 3.5 3.5 0.40 0.23 0.23 97 1007.2
20260505061944 62 205 0.9 1.7 0.42 0.20 0.20 96 1007.2
20260505061443 63 202 2.6 5.2 0.35 0.17 0.17 95 1007.3
20260505060940 63 218 5.2 7.8 0.38 0.14 0.14 94 1007.2
20260505060437 63 266 1.7 2.6 0.28 0.10 0.10 93 1006.4
20260505055933 63 214 1.7 2.6 0.24 0.08 0.08 92 1006.5
20260505055429 64 231 2.6 3.5 0.24 0.06 0.06 91 1006.2
20260505054926 65 226 5.2 6.1 0.17 0.04 0.04 87 1005.7
20260505054423 65 257 4.3 6.1 0.12 0.02 0.02 85 1005.5
20260505053921 66 194 0.9 1.7 0.07 0.01 0.01 82 1005.4
20260505053418 67 236 1.7 2.6 0.00 0.00 0.00 78 1005.2
20260505052915 68 212 2.6 2.6 0.00 0.00 0.00 75 1004.8
20260505052412 69 176 1.7 1.7 0.00 0.00 0.00 74 1004.3
20260505051909 69 177 5.2 5.2 0.00 0.00 0.00 73 1004.3
20260505051406 69 217 3.5 3.5 0.00 0.00 0.00 71 1004.4
20260505050904 69 187 2.6 3.5 0.00 0.00 0.00 71 1004.4
20260505050402 69 155 6.1 7.8 0.00 0.00 0.00 70 1004.3
20260505041330 69 175 5.2 7.0 0.00 0.00 0.00 70 1004.6
20260505040827 69 166 3.5 3.5 0.00 0.00 0.00 69 1004.3
20260505040324 69 174 4.3 5.2 0.00 0.00 0.00 69 1004.2
20260505035821 69 186 5.2 6.1 0.00 0.00 0.00 69 1004.3
20260505035317 70 226 7.8 8.7 0.00 0.00 0.00 68 1004.3
20260505034814 70 187 2.6 3.5 0.00 0.00 0.00 68 1004.5
20260505034311 70 164 6.1 7.8 0.00 0.00 0.00 68 1004.7
20260505033808 70 160 3.5 5.2 0.00 0.00 0.00 68 1004.8
20260505033305 70 161 4.3 6.1 0.00 0.00 0.00 68 1005.0
20260505032803 70 159 5.2 7.0 0.00 0.00 0.00 68 1004.8
20260505032259 70 159 6.1 7.0 0.00 0.00 0.00 68 1004.6
20260505031757 70 207 5.2 6.1 0.00 0.00 0.00 67 1005.0
20260505031253 71 181 6.1 7.8 0.00 0.00 0.00 67 1004.7
20260505030750 70 143 4.3 6.1 0.00 0.00 0.00 67 1004.8
20260505030246 71 165 7.0 8.7 0.00 0.00 0.00 66 1004.6
20260505025741 71 176 5.2 7.0 0.00 0.00 0.00 66 1004.9
20260505025240 71 163 7.8 7.8 0.00 0.00 0.00 66 1004.9
20260505024738 71 161 6.1 7.0 0.00 0.00 0.00 66 1004.8
20260505024235 71 194 7.0 9.6 0.00 0.00 0.00 66 1004.8
20260505023732 71 187 7.0 7.0 0.00 0.00 0.00 66 1004.4
20260505023229 71 167 8.7 11.3 0.00 0.00 0.00 66 1004.6
20260505022726 71 193 7.8 8.7 0.00 0.00 0.00 65 1004.6
20260505022223 71 166 9.6 9.6 0.00 0.00 0.00 65 1004.5
20260505021720 71 176 7.8 8.7 0.00 0.00 0.00 66 1004.5
20260505021217 71 171 3.5 5.2 0.00 0.00 0.00 66 1004.4
20260505020712 71 178 4.3 5.2 0.00 0.00 0.00 65 1004.6
20260505020208 72 171 4.3 5.2 0.00 0.00 0.00 65 1004.2
20260505015706 72 191 5.2 6.1 0.00 0.00 0.00 64 1004.2
20260505015202 72 181 6.1 8.7 0.00 0.00 0.00 64 1004.3
20260505014659 72 165 5.2 7.8 0.00 0.00 0.00 64 1004.1
20260505014156 73 159 5.2 7.8 0.00 0.00 0.00 63 1004.2
20260505013654 73 170 4.3 6.1 0.00 0.00 0.00 63 1004.1
20260505013151 73 192 5.2 6.1 0.00 0.00 0.00 63 1004.1
20260505012649 73 194 2.6 5.2 0.00 0.00 0.00 63 1004.1
20260505012146 73 139 7.0 8.7 0.00 0.00 0.00 63 1004.3
20260505011641 73 162 1.7 2.6 0.00 0.00 0.00 63 1004.2
20260505011139 73 195 2.6 3.5 0.00 0.00 0.00 63 1003.9
20260505010639 73 210 5.2 6.1 0.00 0.00 0.00 63 1004.1
20260505010136 73 210 4.3 7.8 0.00 0.00 0.00 63 1004.2
20260505005632 73 179 7.0 7.8 0.00 0.00 0.00 63 1004.2
20260505005129 73 193 3.5 5.2 0.00 0.00 0.00 63 1004.3
20260505004627 74 180 3.5 5.2 0.00 0.00 0.00 62 1004.2
20260505004123 74 218 4.3 5.2 0.00 0.00 0.00 62 1004.2
20260505003620 74 185 1.7 2.6 0.00 0.00 0.00 62 1004.2
20260505003118 74 222 4.3 5.2 0.00 0.00 0.00 61 1004.3
20260505002614 74 215 3.5 5.2 0.00 0.00 0.00 61 1004.1
20260505002107 75 189 4.3 5.2 0.00 0.00 0.00 60 1004.2
20260505001603 75 190 7.0 8.7 0.00 0.00 0.00 58 1004.1
20260505001100 75 215 7.0 7.8 0.00 0.00 0.00 58 1004.3
20260505000552 75 221 7.0 7.8 0.00 0.00 0.00 58 1004.2
20260505000050 75 231 7.0 12.2 0.00 0.00 0.00 58 1004.1
20260504235546 76 176 7.8 9.6 0.00 0.00 0.00 58 1003.9
20260504235043 76 224 5.2 7.0 0.00 0.00 0.00 59 1004.0
20260504234540 76 204 8.7 13.0 0.00 0.00 0.00 58 1003.9
20260504234037 77 226 7.8 9.6 0.00 0.00 0.00 57 1003.7
20260504233532 77 235 5.2 6.1 0.00 0.00 0.00 57 1003.8
20260504233029 77 195 9.6 13.0 0.00 0.00 0.00 55 1003.9
20260504232526 77 194 9.6 12.2 0.00 0.00 0.00 55 1004.1
20260504232024 77 209 9.6 13.0 0.00 0.00 0.00 55 1003.9
20260504231521 77 197 5.2 7.0 0.00 0.00 0.00 56 1003.8
20260504231017 77 241 5.2 6.1 0.00 0.00 0.00 55 1004.0
20260504230513 77 200 7.0 8.7 0.00 0.00 0.00 55 1004.0
20260504230012 78 237 6.1 7.0 0.00 0.00 0.00 55 1003.9
20260504225509 78 221 10.4 13.9 0.00 0.00 0.00 55 1003.9
20260504225006 78 243 11.3 13.0 0.00 0.00 0.00 54 1003.8
20260504224503 79 195 5.2 8.7 0.00 0.00 0.00 55 1003.6
20260504224000 79 182 6.1 7.8 0.00 0.00 0.00 54 1003.6
20260504223456 79 153 5.2 7.0 0.00 0.00 0.00 55 1003.6
20260504222951 80 186 7.0 9.6 0.00 0.00 0.00 54 1003.4
20260504222449 80 177 3.5 7.0 0.00 0.00 0.00 54 1003.4
20260504221947 80 232 7.8 8.7 0.00 0.00 0.00 53 1003.4
20260504221444 80 196 9.6 13.0 0.00 0.00 0.00 52 1003.4
20260504220941 80 185 4.3 6.1 0.00 0.00 0.00 53 1003.5
20260504220437 80 242 8.7 9.6 0.00 0.00 0.00 53 1003.6
20260504215934 80 203 11.3 16.5 0.00 0.00 0.00 52 1003.8
20260504215431 80 196 12.2 14.8 0.00 0.00 0.00 52 1003.5
20260504214927 80 227 8.7 9.6 0.00 0.00 0.00 52 1003.6
20260504214424 79 143 7.0 7.8 0.00 0.00 0.00 52 1003.5
20260504213920 80 274 4.3 7.0 0.00 0.00 0.00 53 1003.8
20260504213416 80 202 13.0 16.5 0.00 0.00 0.00 53 1003.7
20260504212914 80 220 7.8 8.7 0.00 0.00 0.00 53 1003.9
20260504212415 80 226 7.0 8.7 0.00 0.00 0.00 52 1003.8
20260504211913 80 215 10.4 11.3 0.00 0.00 0.00 52 1003.9
20260504211409 80 290 5.2 8.7 0.00 0.00 0.00 52 1004.0
20260504210906 80 205 7.8 9.6 0.00 0.00 0.00 52 1003.9
20260504210403 80 240 7.0 8.7 0.00 0.00 0.00 53 1003.9
20260504205900 80 187 13.9 19.1 0.00 0.00 0.00 52 1004.1
20260504205358 80 224 7.8 13.9 0.00 0.00 0.00 52 1004.3
20260504204856 80 231 5.2 7.0 0.00 0.00 0.00 53 1004.4
20260504204354 80 206 10.4 15.6 0.00 0.00 0.00 52 1004.4
20260504203854 81 203 9.6 13.0 0.00 0.00 0.00 52 1004.5
20260504203349 81 233 7.0 7.8 0.00 0.00 0.00 52 1004.4
20260504202845 81 207 8.7 11.3 0.00 0.00 0.00 52 1004.5
20260504202343 80 159 9.6 13.9 0.00 0.00 0.00 53 1004.7
20260504201839 80 214 8.7 12.2 0.00 0.00 0.00 52 1004.7
20260504201337 80 225 7.0 8.7 0.00 0.00 0.00 52 1004.5
20260504200834 80 234 12.2 15.6 0.00 0.00 0.00 52 1004.7
20260504200331 80 199 13.9 14.8 0.00 0.00 0.00 52 1004.6
20260504195827 81 210 9.6 13.9 0.00 0.00 0.00 52 1004.7
20260504195323 80 237 4.3 7.0 0.00 0.00 0.00 53 1004.7
20260504194820 80 213 9.6 14.8 0.00 0.00 0.00 53 1004.8
20260504194316 81 244 6.1 7.8 0.00 0.00 0.00 52 1004.9
20260504193812 80 234 10.4 11.3 0.00 0.00 0.00 53 1005.0
20260504193310 80 212 7.8 11.3 0.00 0.00 0.00 54 1005.1
20260504192808 80 224 10.4 13.0 0.00 0.00 0.00 53 1005.3
20260504192306 80 224 11.3 13.0 0.00 0.00 0.00 53 1005.2
20260504191804 80 226 8.7 9.6 0.00 0.00 0.00 52 1005.3
20260504191301 81 198 9.6 11.3 0.00 0.00 0.00 53 1005.2
20260504190756 80 197 12.2 14.8 0.00 0.00 0.00 53 1005.3
20260504190253 80 231 8.7 11.3 0.00 0.00 0.00 53 1005.2
20260504185749 79 181 15.6 22.6 0.00 0.00 0.00 52 1005.4
20260504185246 80 198 10.4 13.9 0.00 0.00 0.00 53 1005.4
20260504184742 79 224 5.2 7.0 0.00 0.00 0.00 52 1005.2
20260504184238 79 240 13.0 18.2 0.00 0.00 0.00 51 1005.3
20260504183734 79 223 6.1 7.8 0.00 0.00 0.00 54 1005.1
20260504183231 78 220 9.6 11.3 0.00 0.00 0.00 53 1005.2
20260504182729 78 240 9.6 12.2 0.00 0.00 0.00 52 1005.4
20260504182226 78 208 10.4 13.9 0.00 0.00 0.00 53 1005.2
20260504181724 78 229 12.2 18.2 0.00 0.00 0.00 53 1005.4
20260504181221 77 211 10.4 14.8 0.00 0.00 0.00 52 1005.3
20260504180720 77 221 14.8 22.6 0.00 0.00 0.00 52 1005.6
20260504180218 77 212 11.3 15.6 0.00 0.00 0.00 53 1005.3
20260504175716 77 198 11.3 13.9 0.00 0.00 0.00 53 1005.7
20260504175212 77 188 13.0 15.6 0.00 0.00 0.00 53 1005.6
20260504174710 77 243 6.1 7.8 0.00 0.00 0.00 54 1005.6
20260504174208 76 197 10.4 13.9 0.00 0.00 0.00 54 1005.6
20260504173704 76 167 8.7 13.9 0.00 0.00 0.00 54 1005.6
20260504173201 77 260 12.2 14.8 0.00 0.00 0.00 54 1005.8
20260504172658 76 199 18.2 23.5 0.00 0.00 0.00 53 1006.0
20260504172154 76 233 11.3 16.5 0.00 0.00 0.00 54 1005.9
20260504171650 77 176 5.2 7.8 0.00 0.00 0.00 54 1005.8
20260504171148 75 228 16.5 20.9 0.00 0.00 0.00 54 1005.9
20260504170644 77 285 13.0 15.6 0.00 0.00 0.00 54 1006.1
20260504170142 75 273 3.5 6.1 0.00 0.00 0.00 54 1006.0
20260504151028 72 212 8.7 14.8 0.00 0.00 0.00 57 1006.5
20260504150525 71 210 7.8 9.6 0.00 0.00 0.00 57 1006.8
20260504140950 69 201 9.6 12.2 0.00 0.00 0.00 57 1007.7
20260504140447 69 244 5.2 7.0 0.00 0.00 0.00 58 1007.6
20260504130411 67 217 8.7 13.0 0.00 0.00 0.00 59 1007.9
20260504110259 64 219 7.0 8.7 0.00 0.00 0.00 61 1008.3